SCP
0 0 0 0 0 0 0 -0 0 0 0 0 0 0 0 0 0 0 0 0 0 0 0 0 0 0 0 0 0 0 0 0 0 0 0 0 0 0 0 0 0 0 0
0 0 0 0 0 0 0 0 0 0 0 0 0 0 0 0 0 0 0 0 0 0 0 0 0 0 0 0 0 0 0 0 0 0 0 0 0 0 0 0 0 0 0
0 0 0 0 0 0 0 0 0 0 0 0 0 0 0 0 0 0 0 0 0 0 0 0 0 0 0 0 0 0 0 0 0 0 0 0 0 0 0 0 0 0 0
0 0 0 0 0 0 0 0 1 0 0 0 0 0 0 0 0 0 0 0 0 0 0 0 0 0 0 0 0 0 0 0 0 0 0 0 0 0 0 0 0 0 0
0 0 0 0 0 0 0 0 0 0 1 0 0 0 0 0 0 0 0 0 0 0 0 0 0 0 0 0 0 0 0 0 0 0 0 0 0 0 0 0 0 0 0
1 0 0 0 0 0 1 1 0 0 0 0 0 0 0 0 0 0 0 0 0 0 0 0 0 0 0 0 0 0 0 0 0 0 0 0 0 0 0 0 0 0 0
1 0 0 0 0 0 0 1 1 0 0 0 0 0 0 0 0 0 0 0 0 0 0 0 0 0 0 0 0 0 0 0 0 0 0 0 0 0 0 0 0 0 0
1 0 0 0 0 1 1 0 0 1 0 0 0 0 0 0 0 0 0 0 0 0 0 0 0 0 0 0 0 0 0 0 0 0 0 0 0 0 0 0 0 0 0
1 0 0 1 1 1 1 1 1 1 0 0 0 0 0 0 0 0 0 0 0 0 0 0 0 0 0 0 0 0 0 0 0 0 0 0 0 0 0 0 0 0 0
1 0 0 1 1 1 1 1 1 1 0 0 0 0 0 0 0 0 0 0 0 0 0 0 0 0 0 0 0 0 0 0 0 0 0 0 0 0 0 0 0 0 0
1 0 0 1 0 1 1 1 1 1 0 0 0 0 0 0 0 0 0 0 0 0 0 0 0 0 0 0 0 0 0 0 0 0 0 0 0 0 0 0 0 0 0
0 0 0 2 2 1 1 0 0 0 0 0 0 0 0 0 0 0 0 0 0 0 0 0 0 0 0 0 0 0 0 0 0 0 0 0 0 0 0 0 0 0 0
0 0 0 2 1 0 0 0 0 0 0 0 0 0 0 0 0 0 0 0 0 0 0 0 0 0 0 0 0 0 0 0 0 0 0 0 0 0 0 0 0 0 0
1 0 1 1 0 0 0 0 0 0 0 0 0 0 0 0 0 0 0 0 0 0 0 0 0 0 0 0 0 0 0 0 0 0 0 0 0 0 0 0 0 0 0
1 0 0 0 0 0 0 0 0 0 0 0 0 0 0 0 0 0 0 0 0 0 0 0 0 0 0 0 0 0 0 0 0 0 0 0 0 0 0 0 0 0 0
1 0 0 0 0 0 0 0 0 0 0 0 0 0 0 0 0 0 0 0 0 0 0 0 0 0 0 0 0 0 0 0 0 0 0 0 0 0 0 0 0 0 0
1 0 0 0 0 0 0 0 0 0 0 0 0 0 0 0 0 0 0 0 0 0 0 0 0 0 0 0 0 0 0 0 0 0 0 0 0 0 0 0 0 0 0
0 0 0 0 0 0 0 0 0 0 0 0 0 0 0 0 0 0 0 0 0 0 0 0 0 0 0 0 0 0 0 0 0 0 0 0 0 0 0 0 0 0 0
0 0 0 0 0 0 0 0 0 0 0 0 0 0 0 0 0 0 0 0 0 0 0 0 0 0 0 0 0 0 0 0 0 0 0 0 0 0 0 0 0 0 0
0 0 0 0 0 0 0 0 0 0 0 0 0 0 0 0 0 0 0 0 0 0 0 0 0 0 0 0 0 0 0 0 0 0 0 0 0 0 0 -0 0 0 0
0 0 0 0 0 0 0 0 0 0 0 0 0 0 0 0 0 0 0 0 0 0 0 0 0 0 0 0 0 0 0 0 0 0 0 0 0 0 0 0 0 0 0
0 0 0 0 0 0 0 0 0 0 0 0 0 0 0 0 0 0 0 0 0 0 0 0 0 0 0 0 0 0 0 0 0 0 0 0 0 0 0 0 0 -0 0
0 0 0 0 0 0 0 0 0 0 0 0 0 0 0 0 0 0 0 0 0 0 0 0 0 0 0 0 0 0 0 0 0 0 0 0 0 0 0 0 0 -0 -0
0 0 0 0 0 0 0 0 0 0 0 0 0 0 0 0 0 0 0 0 0 0 0 0 0 0 0 0 0 0 0 0 0 0 0 0 0 0 0 0 0 -0 -0
0 0 0 0 0 0 0 0 0 0 0 0 0 0 0 0 0 0 0 0 0 0 0 0 0 0 0 0 0 0 0 0 0 0 0 0 0 0 0 0 0 0 0
0 0 0 0 0 0 0 0 0 0 0 0 0 0 0 0 0 0 0 0 0 0 0 0 0 0 0 0 0 0 0 0 0 0 0 0 0 0 0 0 0 0 0
Wind_Speed_500mb
48 38 33 27 15 25 20 23 18 13 11 6 18 26 22 19 21 21 23 27 29 27 23 21 30 29 32 35 32 32 39 39 35 25 29 34 38 39 40 42 43 36 39
54 47 36 33 21 21 22 11 14 15 15 23 21 21 17 13 11 18 22 28 28 24 22 23 23 28 36 34 31 41 46 45 35 32 36 41 43 42 42 39 32 33 30
61 49 48 41 32 23 23 22 23 36 32 27 19 15 9 11 13 18 23 24 24 26 29 30 28 30 37 29 38 49 52 45 35 35 36 36 36 36 33 35 35 32 35
65 52 54 57 46 37 36 30 35 35 29 26 22 15 20 22 24 20 22 19 23 31 23 32 29 34 31 35 47 50 49 41 54 50 45 34 33 33 34 36 38 36 37
73 54 57 58 56 49 46 42 36 32 27 25 20 23 26 25 23 21 17 21 23 19 23 25 24 27 29 45 50 44 46 59 56 50 48 38 40 41 38 36 35 36 40
77 64 59 54 52 50 41 38 35 36 32 27 26 21 16 22 23 22 19 18 17 18 25 18 21 19 33 48 47 55 56 55 50 52 50 43 44 42 39 39 38 39 41
68 78 65 58 52 48 50 40 44 36 36 34 28 25 21 17 28 22 18 17 14 21 17 16 16 30 35 34 46 55 55 49 49 47 50 41 41 40 38 41 40 38 39
70 69 72 63 56 50 51 49 44 34 29 24 19 12 6 8 13 14 13 14 15 16 20 19 27 26 27 38 44 51 56 50 50 51 41 41 43 41 40 42 44 43 43
71 64 76 71 62 57 54 48 43 37 31 26 21 11 8 7 4 14 5 13 6 11 13 17 25 25 30 43 52 52 54 55 63 60 41 40 42 40 42 44 44 42 43
75 62 68 76 63 61 56 49 41 34 32 21 15 7 8 4 3 11 9 16 2 9 17 16 16 22 25 41 44 48 57 60 58 53 48 41 40 42 45 45 43 42 43
73 64 64 69 62 59 59 43 38 36 36 29 20 18 10 10 12 13 16 22 26 23 12 5 8 20 27 32 40 54 57 51 54 50 42 45 47 46 47 46 45 41 40
79 68 66 65 56 61 54 49 40 36 32 33 28 21 19 18 18 16 13 17 18 6 7 3 10 15 26 39 50 51 44 60 50 46 44 46 51 54 53 52 47 37 36
85 71 73 64 61 68 57 53 46 38 33 35 33 24 18 14 15 14 15 13 9 6 4 9 19 27 39 46 44 43 54 61 51 47 46 50 54 55 50 47 45 37 35
94 68 76 70 68 70 62 54 46 37 37 33 29 20 14 12 10 9 8 9 4 4 8 13 23 36 32 40 41 40 50 61 56 53 51 48 55 51 48 45 40 35 35
86 72 81 78 76 72 64 55 45 43 37 29 22 16 13 6 4 4 4 7 6 5 6 14 28 28 36 32 29 35 54 62 64 54 43 51 60 51 56 54 45 38 33
83 84 88 84 76 68 64 55 48 41 34 30 25 20 13 5 3 6 3 6 7 7 4 20 24 35 32 35 35 51 62 67 53 44 47 49 48 51 57 42 39 39 38
96 103 98 88 80 73 61 56 51 44 38 32 27 19 9 4 4 2 2 4 4 8 15 19 17 27 35 44 56 61 49 43 45 43 39 39 50 55 36 37 42 47 43
108 107 100 90 78 64 62 55 50 42 38 35 29 19 13 7 5 6 8 11 13 13 17 21 20 30 43 49 46 41 42 44 50 47 44 47 42 30 29 33 38 45 40
90 102 98 83 67 65 62 54 49 45 36 29 21 10 8 7 8 10 12 12 13 16 19 16 23 33 42 53 48 50 50 45 50 50 42 43 37 36 37 34 39 29 26
109 100 82 74 66 68 64 58 52 47 38 26 17 13 14 15 14 15 13 15 18 21 27 28 37 44 59 65 63 68 61 52 57 49 48 45 48 41 29 19 14 18 28
117 92 80 69 77 70 62 57 49 40 30 24 23 21 18 17 13 14 14 16 21 28 33 42 50 55 64 75 71 68 66 71 60 57 58 47 58 46 28 22 25 31 43
70 86 78 75 76 69 59 51 41 33 30 30 27 25 22 19 15 13 17 19 26 30 36 41 44 46 54 67 61 66 65 71 70 57 67 57 69 61 32 41 32 32 38
98 84 84 83 77 71 57 45 37 37 35 31 31 28 24 22 20 19 21 25 33 35 37 35 36 34 52 56 56 60 58 58 59 53 63 66 71 66 35 53 41 28 23
92 94 91 81 73 61 49 45 40 38 37 36 31 28 25 25 26 23 26 29 36 35 23 25 26 40 54 48 53 47 52 57 50 44 55 62 72 72 47 63 43 35 29
88 86 83 77 69 60 50 45 41 43 44 41 36 34 32 34 31 28 27 31 30 32 23 19 37 50 50 40 45 47 52 55 56 54 55 64 73 80 61 69 58 52 41
88 83 73 66 62 62 52 48 44 46 45 42 41 41 38 38 36 37 37 32 29 34 25 28 38 45 36 34 40 40 41 46 48 41 54 60 65 63 47 72 59 55 52
Wind_Direction_500mb
212 212 215 210 217 214 197 189 191 193 196 227 232 253 261 260 275 283 294 301 316 320 329 332 333 340 337 337 333 335 338 336 331 322 311 307 307 309 310 309 311 315 313
211 212 218 206 197 188 185 178 186 183 205 234 217 229 265 280 250 275 293 299 305 312 320 325 328 332 336 335 332 334 336 337 330 311 302 299 303 308 314 320 317 312 309
203 207 219 215 212 206 194 214 227 223 218 213 238 263 242 213 256 304 289 291 293 299 314 321 323 333 334 329 333 338 337 336 337 335 330 325 327 323 324 313 308 302 299
200 206 215 207 209 204 215 203 206 206 223 231 222 249 271 268 286 296 290 285 282 302 324 324 319 331 328 328 334 338 340 344 345 338 341 331 325 314 308 305 312 315 305
201 207 217 215 201 208 214 218 223 235 213 208 233 237 253 253 292 294 292 293 300 323 321 327 314 325 321 329 333 341 332 335 338 339 339 335 322 319 322 320 315 314 309
206 207 213 219 209 204 220 218 212 213 221 218 219 231 264 288 284 279 300 289 293 298 325 326 299 303 318 325 328 328 332 337 338 338 339 327 320 323 329 331 322 314 314
209 208 211 217 206 206 214 213 216 220 226 241 242 248 258 274 266 281 282 284 296 293 326 303 283 305 311 319 326 331 338 340 338 341 338 323 329 331 325 324 322 314 309
211 213 209 212 208 208 211 215 222 223 228 243 251 279 260 234 229 255 272 267 285 320 326 287 286 290 315 331 332 334 336 338 335 335 335 325 325 327 326 320 321 320 316
215 218 212 208 204 211 215 217 220 223 219 226 238 242 232 195 11 138 152 259 300 325 311 293 294 311 328 334 333 332 336 333 328 328 331 330 328 330 331 327 323 320 314
214 218 210 204 201 208 214 217 224 227 214 219 222 222 230 256 189 169 204 159 297 319 347 327 312 335 341 329 328 331 332 326 328 334 336 333 333 333 333 333 330 324 320
211 215 204 200 199 208 217 212 215 211 209 220 207 186 202 199 216 216 255 254 272 307 315 335 331 324 331 329 331 329 332 336 338 337 338 339 338 334 334 334 332 329 327
208 208 202 200 197 198 200 206 207 208 198 205 208 209 209 213 222 238 258 282 304 70 44 313 347 345 340 334 332 333 343 347 344 343 340 337 333 333 333 337 336 330 332
200 201 196 194 195 199 196 201 199 204 203 209 221 229 238 238 242 266 277 287 306 132 120 336 338 327 332 339 342 345 346 340 341 336 333 329 327 325 324 333 338 339 336
206 202 198 196 195 200 202 201 196 204 206 209 218 216 222 232 259 279 282 300 303 194 274 269 319 334 352 351 342 325 327 333 337 332 328 324 326 325 325 322 321 324 334
200 196 194 194 197 200 203 199 198 192 193 197 206 206 212 241 278 257 231 274 338 318 312 292 353 11 355 338 330 317 321 330 327 328 317 319 318 316 315 307 306 305 315
197 188 187 194 193 198 198 197 190 184 186 185 194 195 204 199 250 255 231 238 313 311 348 359 16 7 338 333 325 321 324 323 325 329 318 311 312 320 316 313 304 301 301
190 185 188 188 192 188 190 189 182 178 179 178 185 185 170 184 241 275 245 10 347 8 17 28 25 348 324 320 321 328 338 343 343 340 337 321 319 318 311 306 308 300 296
181 188 183 188 186 185 185 183 179 173 174 165 162 155 154 149 154 131 79 59 43 26 12 7 354 332 332 336 342 351 357 351 349 351 350 343 337 330 320 313 320 314 304
173 185 185 180 186 185 178 175 175 168 161 158 156 154 119 118 132 83 73 55 45 32 22 7 356 347 354 1 358 1 7 2 1 357 3 358 350 332 320 320 329 340 308
189 179 178 176 185 174 173 168 162 158 154 143 132 118 125 116 87 70 56 44 35 33 31 23 13 7 8 4 1 360 359 5 0 5 10 357 2 356 356 348 349 337 326
173 166 170 176 170 167 164 159 154 146 141 133 129 130 116 93 71 60 43 25 33 32 31 27 20 9 4 360 1 356 351 349 3 359 3 359 7 6 4 350 336 332 335
167 161 164 165 161 157 153 149 148 146 137 132 126 107 91 82 77 44 20 30 32 32 30 26 11 359 355 353 351 352 351 351 354 356 347 8 5 8 6 2 347 331 333
160 157 158 157 152 147 155 153 148 136 128 119 97 92 90 79 60 48 46 46 46 51 33 10 7 355 350 351 346 348 352 352 348 353 348 355 3 5 18 7 357 349 1
149 152 150 147 146 144 144 133 128 120 116 109 101 91 84 77 68 66 68 61 60 54 19 16 15 354 348 344 347 348 350 348 353 354 351 341 1 359 18 18 19 20 2
144 142 142 140 135 127 122 123 125 123 115 107 97 87 81 78 71 70 69 68 63 53 26 16 2 352 343 342 351 346 353 355 352 355 358 348 360 356 19 20 17 11 10
141 143 131 127 125 119 118 119 120 115 110 106 99 89 79 72 68 57 51 55 59 44 21 357 350 353 3 3 3 9 2 353 353 344 359 349 356 3 345 10 12 13 12
Wind_Speed_850mb
48 38 33 27 15 25 20 23 18 13 11 6 18 26 22 19 21 21 23 27 29 27 23 21 30 29 32 35 32 32 39 39 35 25 29 34 38 39 40 42 43 36 39
54 47 36 33 21 21 22 11 14 15 15 23 21 21 17 13 11 18 22 28 28 24 22 23 23 28 36 34 31 41 46 45 35 32 36 41 43 42 42 39 32 33 30
61 49 48 41 32 23 23 22 23 36 32 27 19 15 9 11 13 18 23 24 24 26 29 30 28 30 37 29 38 49 52 45 35 35 36 36 36 36 33 35 35 32 35
65 52 54 57 46 37 36 30 35 35 29 26 22 15 20 22 24 20 22 19 23 31 23 32 29 34 31 35 47 50 49 41 54 50 45 34 33 33 34 36 38 36 37
73 54 57 58 56 49 46 42 36 32 27 25 20 23 26 25 23 21 17 21 23 19 23 25 24 27 29 45 50 44 46 59 56 50 48 38 40 41 38 36 35 36 40
77 64 59 54 52 50 41 38 35 36 32 27 26 21 16 22 23 22 19 18 17 18 25 18 21 19 33 48 47 55 56 55 50 52 50 43 44 42 39 39 38 39 41
68 78 65 58 52 48 50 40 44 36 36 34 28 25 21 17 28 22 18 17 14 21 17 16 16 30 35 34 46 55 55 49 49 47 50 41 41 40 38 41 40 38 39
70 69 72 63 56 50 51 49 44 34 29 24 19 12 6 8 13 14 13 14 15 16 20 19 27 26 27 38 44 51 56 50 50 51 41 41 43 41 40 42 44 43 43
71 64 76 71 62 57 54 48 43 37 31 26 21 11 8 7 4 14 5 13 6 11 13 17 25 25 30 43 52 52 54 55 63 60 41 40 42 40 42 44 44 42 43
75 62 68 76 63 61 56 49 41 34 32 21 15 7 8 4 3 11 9 16 2 9 17 16 16 22 25 41 44 48 57 60 58 53 48 41 40 42 45 45 43 42 43
73 64 64 69 62 59 59 43 38 36 36 29 20 18 10 10 12 13 16 22 26 23 12 5 8 20 27 32 40 54 57 51 54 50 42 45 47 46 47 46 45 41 40
79 68 66 65 56 61 54 49 40 36 32 33 28 21 19 18 18 16 13 17 18 6 7 3 10 15 26 39 50 51 44 60 50 46 44 46 51 54 53 52 47 37 36
85 71 73 64 61 68 57 53 46 38 33 35 33 24 18 14 15 14 15 13 9 6 4 9 19 27 39 46 44 43 54 61 51 47 46 50 54 55 50 47 45 37 35
94 68 76 70 68 70 62 54 46 37 37 33 29 20 14 12 10 9 8 9 4 4 8 13 23 36 32 40 41 40 50 61 56 53 51 48 55 51 48 45 40 35 35
86 72 81 78 76 72 64 55 45 43 37 29 22 16 13 6 4 4 4 7 6 5 6 14 28 28 36 32 29 35 54 62 64 54 43 51 60 51 56 54 45 38 33
83 84 88 84 76 68 64 55 48 41 34 30 25 20 13 5 3 6 3 6 7 7 4 20 24 35 32 35 35 51 62 67 53 44 47 49 48 51 57 42 39 39 38
96 103 98 88 80 73 61 56 51 44 38 32 27 19 9 4 4 2 2 4 4 8 15 19 17 27 35 44 56 61 49 43 45 43 39 39 50 55 36 37 42 47 43
108 107 100 90 78 64 62 55 50 42 38 35 29 19 13 7 5 6 8 11 13 13 17 21 20 30 43 49 46 41 42 44 50 47 44 47 42 30 29 33 38 45 40
90 102 98 83 67 65 62 54 49 45 36 29 21 10 8 7 8 10 12 12 13 16 19 16 23 33 42 53 48 50 50 45 50 50 42 43 37 36 37 34 39 29 26
109 100 82 74 66 68 64 58 52 47 38 26 17 13 14 15 14 15 13 15 18 21 27 28 37 44 59 65 63 68 61 52 57 49 48 45 48 41 29 19 14 18 28
117 92 80 69 77 70 62 57 49 40 30 24 23 21 18 17 13 14 14 16 21 28 33 42 50 55 64 75 71 68 66 71 60 57 58 47 58 46 28 22 25 31 43
70 86 78 75 76 69 59 51 41 33 30 30 27 25 22 19 15 13 17 19 26 30 36 41 44 46 54 67 61 66 65 71 70 57 67 57 69 61 32 41 32 32 38
98 84 84 83 77 71 57 45 37 37 35 31 31 28 24 22 20 19 21 25 33 35 37 35 36 34 52 56 56 60 58 58 59 53 63 66 71 66 35 53 41 28 23
92 94 91 81 73 61 49 45 40 38 37 36 31 28 25 25 26 23 26 29 36 35 23 25 26 40 54 48 53 47 52 57 50 44 55 62 72 72 47 63 43 35 29
88 86 83 77 69 60 50 45 41 43 44 41 36 34 32 34 31 28 27 31 30 32 23 19 37 50 50 40 45 47 52 55 56 54 55 64 73 80 61 69 58 52 41
88 83 73 66 62 62 52 48 44 46 45 42 41 41 38 38 36 37 37 32 29 34 25 28 38 45 36 34 40 40 41 46 48 41 54 60 65 63 47 72 59 55 52
Wind_Direction_850mb
212 212 215 210 217 214 197 189 191 193 196 227 232 253 261 260 275 283 294 301 316 320 329 332 333 340 337 337 333 335 338 336 331 322 311 307 307 309 310 309 311 315 313
211 212 218 206 197 188 185 178 186 183 205 234 217 229 265 280 250 275 293 299 305 312 320 325 328 332 336 335 332 334 336 337 330 311 302 299 303 308 314 320 317 312 309
203 207 219 215 212 206 194 214 227 223 218 213 238 263 242 213 256 304 289 291 293 299 314 321 323 333 334 329 333 338 337 336 337 335 330 325 327 323 324 313 308 302 299
200 206 215 207 209 204 215 203 206 206 223 231 222 249 271 268 286 296 290 285 282 302 324 324 319 331 328 328 334 338 340 344 345 338 341 331 325 314 308 305 312 315 305
201 207 217 215 201 208 214 218 223 235 213 208 233 237 253 253 292 294 292 293 300 323 321 327 314 325 321 329 333 341 332 335 338 339 339 335 322 319 322 320 315 314 309
206 207 213 219 209 204 220 218 212 213 221 218 219 231 264 288 284 279 300 289 293 298 325 326 299 303 318 325 328 328 332 337 338 338 339 327 320 323 329 331 322 314 314
209 208 211 217 206 206 214 213 216 220 226 241 242 248 258 274 266 281 282 284 296 293 326 303 283 305 311 319 326 331 338 340 338 341 338 323 329 331 325 324 322 314 309
211 213 209 212 208 208 211 215 222 223 228 243 251 279 260 234 229 255 272 267 285 320 326 287 286 290 315 331 332 334 336 338 335 335 335 325 325 327 326 320 321 320 316
215 218 212 208 204 211 215 217 220 223 219 226 238 242 232 195 11 138 152 259 300 325 311 293 294 311 328 334 333 332 336 333 328 328 331 330 328 330 331 327 323 320 314
214 218 210 204 201 208 214 217 224 227 214 219 222 222 230 256 189 169 204 159 297 319 347 327 312 335 341 329 328 331 332 326 328 334 336 333 333 333 333 333 330 324 320
211 215 204 200 199 208 217 212 215 211 209 220 207 186 202 199 216 216 255 254 272 307 315 335 331 324 331 329 331 329 332 336 338 337 338 339 338 334 334 334 332 329 327
208 208 202 200 197 198 200 206 207 208 198 205 208 209 209 213 222 238 258 282 304 70 44 313 347 345 340 334 332 333 343 347 344 343 340 337 333 333 333 337 336 330 332
200 201 196 194 195 199 196 201 199 204 203 209 221 229 238 238 242 266 277 287 306 132 120 336 338 327 332 339 342 345 346 340 341 336 333 329 327 325 324 333 338 339 336
206 202 198 196 195 200 202 201 196 204 206 209 218 216 222 232 259 279 282 300 303 194 274 269 319 334 352 351 342 325 327 333 337 332 328 324 326 325 325 322 321 324 334
200 196 194 194 197 200 203 199 198 192 193 197 206 206 212 241 278 257 231 274 338 318 312 292 353 11 355 338 330 317 321 330 327 328 317 319 318 316 315 307 306 305 315
197 188 187 194 193 198 198 197 190 184 186 185 194 195 204 199 250 255 231 238 313 311 348 359 16 7 338 333 325 321 324 323 325 329 318 311 312 320 316 313 304 301 301
190 185 188 188 192 188 190 189 182 178 179 178 185 185 170 184 241 275 245 10 347 8 17 28 25 348 324 320 321 328 338 343 343 340 337 321 319 318 311 306 308 300 296
181 188 183 188 186 185 185 183 179 173 174 165 162 155 154 149 154 131 79 59 43 26 12 7 354 332 332 336 342 351 357 351 349 351 350 343 337 330 320 313 320 314 304
173 185 185 180 186 185 178 175 175 168 161 158 156 154 119 118 132 83 73 55 45 32 22 7 356 347 354 1 358 1 7 2 1 357 3 358 350 332 320 320 329 340 308
189 179 178 176 185 174 173 168 162 158 154 143 132 118 125 116 87 70 56 44 35 33 31 23 13 7 8 4 1 360 359 5 0 5 10 357 2 356 356 348 349 337 326
173 166 170 176 170 167 164 159 154 146 141 133 129 130 116 93 71 60 43 25 33 32 31 27 20 9 4 360 1 356 351 349 3 359 3 359 7 6 4 350 336 332 335
167 161 164 165 161 157 153 149 148 146 137 132 126 107 91 82 77 44 20 30 32 32 30 26 11 359 355 353 351 352 351 351 354 356 347 8 5 8 6 2 347 331 333
160 157 158 157 152 147 155 153 148 136 128 119 97 92 90 79 60 48 46 46 46 51 33 10 7 355 350 351 346 348 352 352 348 353 348 355 3 5 18 7 357 349 1
149 152 150 147 146 144 144 133 128 120 116 109 101 91 84 77 68 66 68 61 60 54 19 16 15 354 348 344 347 348 350 348 353 354 351 341 1 359 18 18 19 20 2
144 142 142 140 135 127 122 123 125 123 115 107 97 87 81 78 71 70 69 68 63 53 26 16 2 352 343 342 351 346 353 355 352 355 358 348 360 356 19 20 17 11 10
141 143 131 127 125 119 118 119 120 115 110 106 99 89 79 72 68 57 51 55 59 44 21 357 350 353 3 3 3 9 2 353 353 344 359 349 356 3 345 10 12 13 12